GFSCGP_700_rhum_000.txt.gz
RH
23 28 30 26 25 26 27 19 27 29 29 21 19 25 23 24 26 25 22 20 24 21 22 23 23 26 27 31 36 38 40 44 46 48 50 50 49 46 48 57 60 60 59 59
25 25 34 24 27 29 28 20 28 18 23 29 28 19 20 20 25 24 22 12 18 19 21 24 29 32 34 33 34 41 42 43 49 51 51 48 46 48 47 50 60 63 65 66
22 30 32 20 18 24 28 20 21 31 29 34 35 24 24 24 24 24 22 21 24 26 27 29 34 38 40 39 43 41 49 47 51 54 47 43 42 43 48 52 57 64 68 70
20 30 31 16 29 25 21 31 29 31 36 40 41 42 28 25 24 25 26 25 28 37 38 38 37 40 46 47 48 48 55 54 55 60 61 58 57 54 56 56 63 68 73 74
29 29 35 36 37 41 35 30 30 30 39 42 37 40 30 30 31 28 27 29 36 41 41 41 47 53 57 57 58 61 64 66 68 77 77 66 56 50 54 62 80 80 85 72
43 38 35 39 41 40 44 37 31 39 39 48 45 44 34 36 35 30 32 38 40 40 48 52 56 64 68 69 67 66 76 76 76 87 87 53 51 49 53 66 83 94 96 91
42 41 43 45 41 39 46 40 49 54 67 65 36 39 40 38 40 40 44 50 52 52 59 62 65 66 68 72 68 74 82 92 89 92 69 50 49 44 53 58 72 82 96 98
47 46 50 50 48 59 57 53 60 78 84 64 41 43 43 44 42 50 52 58 59 59 61 64 64 70 71 72 81 89 90 96 84 72 58 56 47 42 50 56 55 54 70 98
59 48 52 51 51 58 58 56 59 62 64 74 53 46 42 38 45 54 57 56 60 64 65 62 64 70 75 83 86 90 83 76 73 62 60 57 44 46 44 40 43 47 60 86
62 62 48 45 50 59 58 60 63 71 85 94 63 54 48 42 46 52 59 61 57 67 69 63 63 68 77 80 78 77 82 65 58 59 52 45 47 41 40 45 59 85 98 98
62 57 41 52 65 62 55 66 68 71 76 91 97 71 53 49 64 56 57 60 64 67 61 70 76 80 84 87 84 72 62 62 56 48 38 33 27 34 46 61 79 94 100 99
61 58 55 62 62 59 67 66 72 87 81 83 84 76 51 67 50 64 68 71 72 63 64 62 67 75 77 66 66 66 63 58 45 30 24 25 34 45 67 78 89 98 96 98
66 65 59 49 64 57 49 49 60 78 84 84 86 67 50 62 75 80 74 68 64 64 67 64 62 62 65 68 63 57 52 40 27 23 25 31 38 54 89 87 99 97 94 94
68 64 67 70 70 84 69 36 60 72 81 81 82 76 66 72 79 76 66 64 64 66 67 65 67 64 69 63 57 45 31 26 25 27 34 38 51 88 85 93 92 94 94 88
71 82 81 77 91 92 68 68 63 71 60 91 67 71 67 71 75 76 74 70 70 70 78 79 66 67 62 54 43 33 27 27 31 36 41 56 89 98 97 97 95 100 99 97
55 64 80 40 55 83 64 51 56 57 61 64 65 70 73 74 74 79 75 74 80 76 70 70 60 56 53 36 23 21 24 29 39 43 56 93 99 99 97 97 98 98 96 93
50 55 82 88 82 77 70 52 52 58 56 72 79 74 68 75 85 84 86 86 89 72 73 74 61 50 30 21 22 30 34 36 47 57 90 100 99 97 96 96 94 77 73 72
47 62 82 94 82 98 48 54 56 62 58 65 64 64 77 90 87 77 79 82 85 91 83 69 62 33 30 32 36 42 45 59 71 80 88 95 88 88 83 73 77 97 86 59
70 78 87 85 97 77 65 57 59 68 68 72 79 81 82 73 75 76 74 92 100 98 93 42 42 36 28 30 29 44 66 82 90 93 95 88 93 99 98 98 95 68 49 22
56 63 74 75 95 90 56 60 66 82 77 75 80 83 86 86 88 95 96 97 99 95 65 37 39 48 26 32 40 59 81 99 100 97 96 98 97 95 91 78 45 26 20 15
68 75 76 76 82 80 48 62 81 87 77 85 82 88 83 89 100 99 98 97 98 90 65 64 59 31 31 50 66 100 99 100 100 98 97 97 94 79 44 28 22 20 18 19
76 87 85 84 95 86 65 75 94 92 95 97 79 66 98 99 100 100 98 96 83 75 70 32 27 37 54 68 77 99 99 99 97 92 84 62 40 26 22 22 23 26 29 30
94 81 81 79 76 72 78 88 82 85 97 83 81 97 98 100 100 99 88 87 57 40 32 33 30 42 64 80 96 94 90 85 71 51 39 24 23 25 27 30 35 43 42 37
96 90 93 99 63 78 77 67 75 98 100 100 99 100 100 100 95 90 89 60 43 30 29 36 53 66 78 92 100 91 80 57 42 29 23 24 29 39 46 49 55 57 46 49
96 99 96 90 72 77 78 94 100 99 99 100 99 98 96 96 90 89 60 39 33 41 46 62 77 98 98 96 100 89 66 45 27 24 25 27 40 58 59 58 65 62 64 73
96 93 100 90 85 99 95 100 99 100 100 98 97 96 97 97 79 42 48 45 42 43 61 77 98 96 95 96 92 75 56 36 27 27 27 31 37 48 58 71 74 76 82 74

GFSCGP_700_rhum_003.txt.gz
RH
24 28 31 30 22 20 23 27 20 29 27 21 24 24 19 21 22 23 23 20 19 24 26 30 27 30 34 39 44 44 46 52 54 51 49 51 51 46 43 42 49 53 57 60
22 25 32 27 18 26 30 28 19 14 25 28 32 22 21 21 24 23 22 17 17 20 24 25 28 32 41 40 40 40 45 53 60 57 55 55 60 52 47 42 46 56 58 58
23 30 32 21 26 25 23 21 25 33 31 39 34 24 26 25 24 23 24 20 26 26 32 36 37 39 48 51 48 52 54 61 66 68 69 68 72 68 53 47 39 41 52 58
26 29 34 35 32 32 28 29 29 33 38 41 36 34 34 28 28 28 28 29 34 37 40 40 45 53 54 54 56 61 64 62 64 67 66 70 78 76 59 49 46 43 50 73
34 33 34 34 41 40 35 27 31 32 43 43 40 39 40 38 34 33 32 33 38 40 43 50 53 55 57 58 64 64 65 70 79 76 81 81 87 71 60 45 43 38 39 49
41 38 37 44 43 46 41 30 31 42 45 48 48 46 44 39 37 34 37 39 45 53 56 57 57 60 61 65 66 69 69 70 71 79 78 74 70 65 49 49 48 40 40 48
46 42 46 48 45 47 49 29 38 52 65 66 47 46 47 46 52 50 48 53 57 59 61 60 61 63 66 69 74 76 79 79 81 82 81 71 56 49 48 46 40 37 37 37
42 45 49 52 52 60 55 53 58 68 85 68 46 49 52 56 60 56 55 64 62 62 64 66 70 67 72 80 79 75 80 84 78 70 61 55 53 48 41 35 28 27 29 38
46 45 52 57 54 57 60 61 61 63 68 79 57 52 50 45 50 66 63 57 63 65 68 74 72 70 73 74 77 75 71 69 62 60 58 53 44 29 22 20 20 26 35 48
56 53 45 49 60 58 61 63 62 65 84 90 63 52 47 52 59 52 61 66 70 76 76 71 69 70 69 74 78 75 66 63 62 56 47 36 27 20 18 22 31 47 75 90
52 50 44 55 59 63 60 63 70 68 72 88 96 68 56 52 64 68 64 70 74 75 73 67 68 70 80 76 69 61 57 60 53 43 29 16 15 14 13 19 39 76 95 97
54 51 46 65 61 60 63 68 62 71 70 72 76 74 59 66 65 68 76 73 72 71 72 72 76 84 81 85 76 64 60 51 36 16 17 22 14 11 18 33 57 98 98 95
58 58 56 64 67 60 56 52 63 76 87 82 84 69 53 59 68 65 67 69 72 69 71 83 93 92 86 89 84 63 47 25 15 22 22 17 11 18 40 64 93 97 98 97
59 61 61 63 60 60 47 59 66 83 99 91 81 80 69 73 67 72 76 77 79 85 90 90 92 83 81 71 54 46 34 20 30 30 23 18 22 35 57 97 100 99 96 96
60 58 50 57 75 75 52 53 48 62 62 100 65 70 57 64 72 77 82 90 96 83 70 74 87 81 84 66 57 42 35 44 34 22 24 32 49 83 100 98 99 99 98 98
53 53 47 36 50 57 48 40 50 42 48 56 63 58 62 65 80 90 93 96 90 78 68 71 86 94 78 62 56 54 46 32 24 23 47 68 72 100 94 97 97 96 95 94
47 51 73 80 65 81 53 49 51 58 59 62 67 63 63 73 76 68 59 66 67 62 77 81 95 99 66 77 72 36 28 27 30 46 65 80 90 89 91 93 95 100 98 98
39 55 76 85 75 97 47 53 53 55 50 52 69 64 74 71 73 63 78 76 79 87 93 100 100 96 90 45 29 25 25 36 63 76 91 93 91 88 96 100 100 100 98 87
55 69 84 94 99 78 69 54 58 65 66 61 68 71 74 96 90 73 73 96 99 96 79 97 92 53 31 25 23 31 47 59 99 92 99 98 100 100 97 96 91 79 52 28
54 59 71 84 98 95 60 62 67 71 83 87 78 89 97 98 97 93 94 98 96 98 92 89 72 47 28 41 44 58 68 76 100 98 98 95 96 86 71 42 27 24 22 24
62 69 74 77 90 80 61 66 69 83 84 96 100 99 100 100 100 97 98 96 98 99 58 32 34 33 29 45 69 82 76 85 90 89 81 54 40 28 23 22 22 25 29 34
77 90 88 85 93 85 65 76 92 96 98 99 93 92 98 100 100 94 97 97 91 59 30 34 22 24 39 65 95 91 88 90 88 77 42 31 21 22 24 26 33 48 50 51
95 76 83 86 83 81 80 96 93 98 96 85 96 98 98 100 100 99 97 93 67 26 25 24 30 30 56 75 100 98 96 94 81 56 35 20 25 27 29 32 38 51 55 63
97 87 100 98 73 75 93 90 98 93 86 90 96 98 97 94 98 95 88 39 24 20 34 46 47 52 68 99 100 98 93 84 70 48 29 28 29 32 35 36 42 57 78 81
95 99 98 90 90 87 85 94 98 98 98 96 93 99 98 97 91 79 65 31 20 20 33 61 67 69 76 85 82 77 79 77 61 46 33 32 31 34 34 45 66 91 96 85
75 92 98 98 87 99 100 100 98 98 92 95 100 95 94 62 40 29 21 16 16 15 39 73 83 82 84 79 83 87 83 72 58 34 34 34 35 30 45 71 98 100 92 84

GFSCGP_700_rhum_006.txt.gz
RH
26 28 30 31 18 21 25 26 26 19 19 21 24 29 22 19 23 25 25 22 19 26 28 28 30 29 33 38 40 46 50 48 45 56 60 61 62 52 55 62 58 56 41 42
18 26 32 28 22 23 24 25 23 20 26 28 32 27 25 24 24 24 23 19 20 25 27 30 30 31 35 50 50 45 46 57 60 60 63 66 68 62 64 74 70 61 50 45
23 32 35 24 30 29 27 25 29 32 27 36 36 28 30 27 26 27 25 23 23 26 31 36 37 42 50 56 59 60 60 61 67 73 80 83 81 79 78 80 79 74 58 50
33 30 34 32 33 35 32 34 34 34 36 42 39 36 37 33 30 30 31 30 32 36 40 47 50 54 58 62 63 58 63 68 71 72 73 74 75 80 80 75 69 58 47 47
33 34 35 36 41 38 33 31 31 32 37 45 45 40 40 39 38 36 35 35 38 45 51 53 59 59 62 66 63 65 68 67 67 75 80 81 83 82 76 64 52 49 47 45
41 40 39 44 46 42 36 30 36 47 46 50 50 48 45 45 44 44 40 42 50 55 58 61 61 62 67 63 61 64 70 74 77 81 86 88 81 63 57 50 45 40 36 32
44 43 47 51 43 50 44 30 35 51 63 65 48 48 48 52 48 50 50 51 56 62 60 62 62 65 71 66 71 75 77 82 86 88 82 70 62 58 50 42 29 18 18 17
44 47 50 51 47 59 50 46 57 59 87 72 47 50 53 60 54 55 53 57 60 59 58 64 70 74 72 78 81 85 90 95 94 68 62 59 55 48 36 18 20 18 11 9
47 50 54 47 55 57 53 56 59 61 67 81 55 54 55 56 59 66 63 61 63 65 72 75 78 81 91 97 97 96 89 80 75 69 64 55 43 22 19 24 15 10 8 14
46 47 46 55 61 61 58 61 60 61 88 87 60 48 48 60 64 61 58 67 73 77 79 82 86 89 87 84 83 90 89 83 80 79 61 29 20 30 32 28 22 13 13 31
48 46 42 54 61 67 66 65 67 64 70 90 97 64 55 62 58 60 64 68 72 80 82 80 85 88 88 89 93 88 78 80 63 49 34 32 37 38 32 22 15 11 32 67
44 45 40 37 63 67 65 62 59 58 67 77 80 73 55 62 60 62 66 60 68 87 89 85 84 86 89 68 70 87 90 78 45 36 45 46 38 21 13 10 9 24 63 94
44 47 43 40 61 65 64 67 72 79 94 90 90 65 56 60 66 66 71 75 79 82 84 86 90 88 87 85 91 97 86 68 52 65 47 28 20 16 16 15 37 70 97 94
49 52 56 49 43 44 49 51 68 88 100 91 83 78 45 62 64 66 65 81 86 83 79 67 67 71 82 97 99 91 65 68 84 55 30 22 18 20 36 55 67 97 100 98
46 50 41 40 36 34 35 41 48 72 62 100 53 65 54 61 65 69 70 81 76 70 69 72 73 74 84 96 99 95 86 54 28 22 19 18 23 48 70 86 90 91 93 98
45 43 40 34 38 48 45 42 51 47 52 56 60 55 50 62 79 80 76 82 74 78 72 73 93 79 100 100 100 84 39 24 19 21 27 44 64 67 91 94 96 97 96 96
42 42 50 45 48 60 45 43 46 53 53 48 53 50 57 75 79 78 77 74 71 77 82 95 95 100 95 81 41 15 14 17 22 32 53 80 89 86 100 99 97 95 94 94
40 48 72 81 78 96 46 53 57 60 56 54 59 64 74 84 89 89 78 66 77 79 74 100 99 94 54 18 11 12 16 16 39 58 64 80 95 100 99 95 91 81 59 35
45 55 78 85 96 83 66 54 61 66 66 62 64 69 69 94 94 79 64 76 98 96 99 96 86 54 28 14 17 21 22 41 69 72 72 83 80 73 58 30 19 21 23 25
47 55 76 100 99 96 61 64 68 69 78 81 78 87 94 96 87 84 98 94 94 98 96 83 44 30 15 16 21 29 53 71 98 95 86 87 63 39 16 16 23 26 28 29
64 67 72 78 100 88 62 72 79 92 94 97 99 99 98 100 100 97 98 97 100 96 78 42 21 18 18 26 40 56 79 89 94 96 92 68 46 22 17 25 27 30 32 35
78 81 84 92 92 81 74 89 99 97 92 96 100 97 90 98 98 78 92 98 87 56 35 22 15 11 16 44 61 69 100 97 98 88 73 57 42 25 28 28 32 33 33 42
96 77 93 97 88 78 90 96 97 100 100 98 100 99 98 92 94 96 90 55 43 41 34 17 13 12 25 61 71 68 82 86 79 78 69 58 32 31 31 33 30 30 52 66
87 87 97 100 73 74 100 94 96 94 96 100 99 97 87 99 97 87 60 53 45 32 25 18 14 16 44 87 90 87 83 83 81 82 71 41 33 33 35 29 38 64 83 82
84 90 72 91 67 77 92 97 89 98 90 96 94 98 98 92 73 68 66 51 34 28 25 21 21 28 60 98 98 97 95 92 92 71 46 34 38 38 29 39 74 86 82 75
70 83 94 90 99 98 98 96 98 94 93 65 99 91 92 82 75 71 71 49 31 29 26 19 17 33 79 100 99 97 98 89 54 36 32 38 38 34 43 71 83 83 76 80

GFSCGP_700_rhum_009.txt.gz
RH
22 22 27 28 17 16 19 22 24 21 20 19 22 30 25 21 21 23 26 23 22 26 28 30 31 32 32 38 50 45 49 51 51 52 47 59 65 64 63 62 61 66 70 67
21 24 29 26 20 25 26 24 22 24 25 24 31 29 26 26 27 26 24 23 19 25 31 33 34 32 36 50 56 56 53 56 51 62 66 69 75 75 75 75 75 77 74 61
21 30 30 30 30 30 31 29 30 30 26 29 37 33 31 27 27 29 28 26 22 27 32 34 38 46 54 56 61 63 63 64 67 71 74 81 84 84 86 85 84 71 58 51
28 29 32 34 34 33 29 32 33 36 37 41 40 34 38 33 31 32 33 31 31 36 40 48 56 56 60 64 67 68 69 70 71 77 80 80 82 84 85 82 70 55 50 46
28 32 36 36 40 37 37 34 34 34 39 45 45 40 43 41 38 37 36 36 40 44 56 56 59 62 63 69 72 72 73 72 74 79 79 80 84 89 90 76 56 52 47 38
39 40 39 42 45 43 40 33 40 48 50 51 50 47 50 46 45 43 40 45 49 58 60 61 60 63 68 72 74 72 73 76 78 79 81 88 91 88 75 73 65 49 34 30
42 43 47 47 40 46 42 33 38 48 56 54 48 48 56 55 52 49 50 58 61 62 61 60 61 64 75 77 78 79 79 80 82 85 90 90 84 84 83 67 38 37 32 32
40 47 46 44 44 52 48 44 50 54 63 61 48 55 59 58 55 52 61 62 62 60 61 64 68 72 78 81 87 85 86 86 85 81 83 88 90 70 48 31 43 42 36 28
43 48 44 46 54 56 52 52 55 58 71 77 54 59 62 61 60 63 64 61 62 68 71 74 76 79 84 90 92 91 96 87 80 90 90 77 63 51 35 54 45 28 20 17
45 50 49 59 61 60 58 60 56 57 74 68 56 59 49 57 64 64 58 58 64 70 74 79 84 88 91 94 92 92 92 88 89 97 93 76 52 40 61 24 17 12 13 14
36 37 44 51 62 66 66 67 65 59 72 80 91 60 44 47 51 61 65 64 62 70 79 85 88 90 88 88 78 72 79 86 89 93 88 78 67 54 38 25 15 13 21 36
29 29 31 38 60 68 68 67 63 60 60 71 82 65 47 54 54 65 65 60 68 70 76 81 73 68 64 66 73 68 70 79 92 86 81 68 52 33 17 12 13 25 45 67
39 32 30 40 62 64 63 57 55 75 87 86 88 63 49 53 62 70 62 72 76 88 90 71 66 72 71 70 85 71 88 97 98 84 46 24 13 9 14 27 47 64 79 86
37 31 32 31 30 32 36 37 55 79 94 83 75 68 38 51 66 70 76 83 97 90 77 70 72 72 74 97 96 82 72 56 25 13 9 10 7 23 42 57 71 93 97 91
30 27 28 29 31 34 36 40 48 64 63 97 53 62 45 62 68 69 68 76 77 82 81 68 69 77 93 99 87 59 45 42 35 14 11 15 30 51 60 77 88 100 100 100
35 40 35 35 40 40 40 30 49 53 53 63 67 56 59 64 65 74 85 92 95 95 84 81 79 79 82 96 75 47 28 16 10 12 17 38 67 65 68 80 86 91 93 92
37 39 49 48 46 50 41 45 47 50 56 60 58 60 65 68 82 90 93 95 94 82 81 88 96 79 90 63 49 15 9 10 18 26 46 70 87 84 80 76 65 40 22 21
36 49 65 71 64 81 41 52 59 65 56 61 63 66 65 65 92 100 86 83 82 78 100 97 91 63 36 23 14 10 10 22 40 49 73 94 98 90 77 55 23 15 20 25
44 50 66 87 92 79 56 56 63 68 70 68 68 69 72 88 94 86 82 96 93 99 97 75 42 24 18 15 13 9 10 32 54 63 98 100 97 80 58 34 19 23 25 27
52 57 66 99 98 94 58 66 71 73 76 76 92 94 95 92 94 98 98 96 97 94 69 61 26 18 19 16 12 10 19 59 65 94 100 99 88 62 49 28 28 29 30 30
66 71 76 99 99 84 71 74 79 94 98 98 97 98 97 98 99 98 94 96 92 78 50 34 27 24 20 17 13 13 31 66 74 77 93 76 74 66 38 34 36 34 27 25
78 87 89 94 92 84 77 88 99 98 99 94 92 99 98 98 96 93 96 89 78 55 54 42 35 30 22 19 17 21 57 82 83 82 83 82 82 56 37 39 38 26 35 60
81 83 92 98 85 76 77 100 99 99 98 99 99 98 98 96 88 78 78 70 69 69 60 42 33 27 22 24 32 38 77 91 90 90 92 88 63 43 43 39 28 45 70 75
72 86 98 100 80 75 79 93 100 100 100 91 94 81 72 73 74 70 77 68 79 65 46 36 30 26 23 29 45 86 97 98 98 93 87 51 42 44 41 33 48 70 80 71
68 100 97 98 70 80 80 98 97 98 94 82 72 66 59 71 75 68 71 78 57 43 35 29 28 24 24 27 47 100 100 100 97 80 45 36 40 38 32 44 73 82 78 81
76 86 99 96 93 93 99 96 97 97 82 69 61 86 70 50 67 85 77 50 39 34 30 26 23 23 27 41 83 100 100 98 80 39 35 35 32 28 42 65 77 82 87 96

GFSCGP_700_rhum_012.txt.gz
RH
21 24 27 23 13 13 14 24 26 27 17 20 31 35 26 23 22 24 26 25 25 28 28 32 34 33 33 35 42 49 48 48 52 54 56 56 63 65 70 72 72 77 70 68
19 25 24 24 16 19 25 29 29 32 24 24 39 34 26 26 28 27 27 24 22 27 30 33 35 35 37 41 52 55 56 53 57 55 62 66 70 74 77 80 82 83 84 87
25 25 25 26 28 34 33 35 43 41 40 28 39 36 34 26 26 28 27 24 24 31 35 36 38 44 50 54 56 59 61 62 63 66 69 72 75 76 80 88 90 87 88 81
25 28 30 34 36 34 37 33 32 32 41 27 33 25 39 31 30 32 32 30 34 37 41 45 54 55 58 60 62 68 69 68 69 70 73 76 77 80 82 84 87 88 89 75
27 31 36 45 39 36 50 35 33 34 45 42 41 30 42 39 40 44 40 38 39 44 48 56 58 59 60 64 70 71 70 70 72 76 81 80 83 88 91 84 82 78 68 64
33 38 38 40 39 35 39 34 38 48 54 42 49 41 40 44 51 50 41 42 46 49 56 60 61 61 63 68 71 73 79 82 83 92 89 92 96 74 66 60 68 72 74 41
44 41 43 40 49 47 52 48 38 49 47 42 46 42 56 55 48 46 44 47 53 60 62 60 62 65 68 72 79 82 84 92 92 90 92 77 70 74 72 76 76 71 49 50
44 46 47 41 43 50 46 55 53 50 46 40 51 37 51 54 53 51 51 58 62 61 60 64 68 70 72 77 79 81 83 86 88 72 59 66 74 73 76 82 77 71 61 50
53 52 42 45 49 48 57 60 48 58 57 68 44 53 51 57 62 58 61 62 58 58 57 57 64 72 77 80 87 82 79 67 58 61 59 59 60 63 73 79 78 62 48 34
37 57 45 47 49 55 57 53 57 56 71 43 26 34 33 62 69 64 65 60 65 61 62 69 78 86 91 78 69 66 64 66 73 66 58 70 79 86 78 58 37 20 10 10
22 32 44 39 58 64 67 66 60 58 64 51 49 30 48 62 55 55 59 65 65 59 62 70 82 80 69 63 61 59 60 67 71 65 76 60 38 28 24 23 19 13 17 33
25 20 42 48 41 55 61 69 66 56 54 68 75 49 50 46 49 56 70 80 67 68 97 80 80 80 74 70 69 63 65 74 64 47 42 48 44 27 21 14 15 42 60 72
26 30 40 46 54 63 72 72 50 52 67 74 76 50 54 58 64 73 85 68 67 76 80 80 86 89 86 90 86 71 76 72 57 50 40 22 13 9 10 25 53 59 74 98
20 22 28 30 37 43 56 60 69 74 82 65 62 58 59 59 65 75 85 66 85 93 94 96 97 95 92 91 73 73 66 49 24 12 9 7 8 20 38 66 74 71 81 99
21 25 29 32 26 27 66 54 63 65 74 78 69 63 65 70 75 60 63 93 98 95 96 93 87 99 97 77 73 57 25 16 13 9 7 11 24 44 66 86 85 78 70 58
32 39 31 30 30 33 39 37 64 62 67 80 77 77 78 68 64 70 75 95 98 96 91 89 98 96 85 66 33 18 14 11 9 8 10 20 45 69 90 93 86 66 42 19
36 36 42 48 41 43 54 44 51 61 66 77 77 74 66 74 89 90 88 94 93 95 93 88 90 84 73 54 18 13 12 12 10 10 17 44 65 96 97 93 63 43 23 19
38 45 56 62 58 82 62 52 54 56 58 72 76 80 71 82 98 100 91 80 88 99 86 88 80 69 40 29 34 29 18 15 14 16 44 68 79 100 95 73 53 27 22 24
44 50 62 82 88 71 58 62 65 75 66 71 68 72 78 91 85 100 77 82 100 91 88 85 58 44 46 42 30 24 20 18 23 42 73 79 78 83 76 70 36 26 29 30
51 57 68 96 94 80 75 60 68 66 80 80 80 88 96 87 92 86 92 97 87 86 69 59 54 57 44 33 28 25 24 24 26 47 77 84 82 82 81 49 29 33 30 20
58 65 73 99 98 91 80 74 84 91 97 94 91 97 98 96 98 95 86 76 76 70 68 67 69 52 39 34 30 26 32 30 36 71 94 92 88 89 65 35 35 29 22 40
69 77 82 88 98 98 74 91 98 91 82 92 91 99 97 94 73 76 79 76 78 76 71 63 51 43 34 29 30 28 30 63 75 100 100 99 95 72 42 36 31 25 45 63
82 66 80 80 71 84 95 98 90 81 98 100 99 96 90 69 71 69 50 53 63 68 63 48 34 30 30 31 32 31 36 47 91 99 99 97 72 42 37 30 26 46 66 71
75 78 84 95 67 98 98 95 80 82 100 99 100 81 60 72 68 35 39 60 55 53 46 35 31 32 32 30 31 43 43 88 100 99 98 78 41 36 33 26 46 70 70 73
78 94 90 96 74 92 96 89 80 82 98 94 80 46 35 25 29 46 50 55 58 43 28 33 38 38 33 32 33 42 63 98 100 98 81 40 35 28 24 44 64 69 71 80
76 95 99 94 95 95 94 81 94 92 91 71 43 42 46 51 55 61 62 56 34 26 33 38 33 33 45 55 55 73 100 100 98 78 38 31 23 22 44 63 66 61 73 79

GFSCGP_700_rhum_015.txt.gz
RH
26 23 22 26 24 21 18 17 17 19 28 20 23 24 26 32 31 35 34 34 33 38 55 61 31 30 32 33 34 37 44 48 50 52 52 54 60 61 66 70 72 75 76 79
20 24 30 24 27 24 24 22 22 27 29 24 26 24 30 34 37 36 37 40 47 48 50 34 33 35 36 41 48 54 56 56 56 53 56 59 62 67 71 72 74 75 80 86
23 30 20 31 29 29 29 27 35 34 32 31 29 26 30 35 35 37 39 41 45 52 55 37 36 37 42 50 53 56 56 58 62 63 63 66 69 71 77 80 82 87 87 82
29 19 33 32 35 35 30 40 40 38 33 24 29 22 30 32 37 41 45 49 52 55 49 38 44 53 55 57 59 59 63 68 69 68 68 71 74 78 96 92 89 87 74 67
35 37 39 38 43 31 39 27 43 41 35 29 26 21 35 32 34 42 48 55 60 40 42 46 53 56 58 59 58 62 66 68 70 72 76 83 91 90 94 84 50 50 50 52
39 32 46 49 42 30 36 48 45 44 37 32 32 28 32 34 40 44 51 62 66 54 46 51 58 60 59 59 63 66 70 74 80 84 86 68 63 53 48 46 47 51 52 50
40 46 51 34 46 51 43 39 37 42 39 37 38 28 44 49 50 50 58 68 72 49 58 60 63 79 73 66 70 75 82 83 86 74 53 54 55 55 56 53 56 56 59 66
34 45 49 38 43 51 46 46 48 44 40 31 38 25 40 53 58 57 62 69 66 59 61 60 57 55 66 64 69 74 75 65 58 61 58 56 63 65 57 52 54 49 47 42
39 44 45 35 48 45 49 48 46 56 55 57 27 33 50 56 63 64 68 73 78 80 84 90 95 98 65 61 73 73 65 61 63 62 54 46 50 51 52 55 51 43 34 24
42 48 45 48 32 53 51 47 50 46 60 39 21 20 34 56 56 64 63 68 74 79 84 92 95 97 87 68 71 68 73 78 79 64 56 56 58 58 48 37 25 16 12 10
38 43 48 41 51 46 51 51 54 42 48 46 38 28 41 44 53 60 64 68 76 84 90 90 96 99 97 97 95 96 93 79 62 55 54 55 44 27 15 9 8 10 18 32
19 48 44 36 34 26 58 52 49 50 41 49 58 51 50 53 57 62 67 72 87 91 92 98 95 99 100 100 94 83 78 66 62 51 34 20 12 9 9 9 10 18 39 75
24 56 38 35 59 64 53 55 53 61 64 54 59 49 50 58 68 62 60 74 87 99 87 95 99 100 99 95 90 84 73 52 39 20 13 9 11 11 7 10 28 46 63 68
15 55 46 37 34 38 42 42 43 49 61 59 52 47 46 51 64 66 70 78 90 94 97 98 90 91 85 86 92 67 68 29 16 12 13 14 15 11 15 41 74 85 87 80
24 58 57 47 43 42 45 48 47 44 45 49 54 54 55 67 75 82 88 95 99 100 96 82 88 87 78 86 69 70 40 23 29 28 20 31 36 19 59 81 87 85 81 63
23 66 30 30 49 48 52 49 47 46 51 55 55 57 66 76 79 91 98 98 96 76 76 89 96 86 85 82 92 96 47 39 33 34 70 97 53 47 75 88 96 85 65 37
33 34 40 43 38 40 55 51 48 51 55 63 69 69 77 79 95 95 98 98 89 83 86 96 89 94 100 99 97 100 100 100 98 99 100 99 64 71 82 99 100 100 61 38
36 39 46 50 58 83 60 60 60 58 64 61 63 70 88 89 98 94 92 98 87 87 88 81 97 84 68 72 92 95 98 100 100 100 97 88 80 91 100 100 100 100 100 100
41 44 52 75 71 62 66 73 69 68 61 70 91 96 99 96 74 96 95 78 72 59 53 60 78 66 56 89 89 92 96 98 97 99 96 96 99 100 100 100 100 100 100 100
42 49 64 89 96 77 71 78 81 75 74 92 96 75 62 69 83 83 76 58 45 45 64 81 89 91 88 88 88 86 87 91 95 98 100 74 98 100 100 99 100 100 100 100
47 57 70 99 97 81 72 84 69 86 92 95 74 72 79 97 92 72 50 46 70 89 84 86 88 88 91 74 74 87 86 92 99 97 92 60 97 98 98 90 100 100 100 91
60 74 76 93 99 90 74 85 98 90 94 98 84 88 96 98 65 57 66 56 86 85 82 82 87 91 56 69 88 89 85 88 80 62 71 80 98 98 96 90 100 100 74 60
70 78 84 83 80 74 86 99 98 98 97 87 87 98 98 81 87 90 75 86 83 84 79 83 88 90 89 94 96 96 97 89 48 62 92 98 95 96 98 100 100 53 49 55
42 75 87 97 81 90 98 97 99 99 90 76 92 80 65 92 74 73 80 80 78 70 71 81 90 94 96 96 97 100 76 62 78 98 99 98 96 64 34 82 68 53 53 60
43 81 92 93 94 95 96 97 96 98 81 83 79 69 57 50 71 86 78 69 74 72 86 89 96 96 97 99 100 72 62 72 94 97 98 83 34 23 20 37 42 50 54 63
32 68 94 96 99 96 94 98 95 95 99 83 74 69 62 75 85 72 69 66 79 69 72 95 93 92 99 74 64 60 73 92 94 98 45 26 18 23 34 38 44 49 55 60

GFSCGP_700_rhum_021.txt.gz
RH
24 28 27 24 22 21 17 18 21 24 24 22 19 18 26 27 27 27 26 25 27 28 33 50 56 60 68 66 56 51 41 40 48 55 57 58 60 66 72 85 87 79 87 82
29 28 28 22 17 11 16 21 28 28 30 22 19 24 26 27 28 32 33 32 31 29 30 46 59 56 61 71 59 40 44 52 56 56 56 61 64 62 62 63 66 76 86 90
22 28 12 22 26 16 30 24 25 30 27 26 20 25 28 29 32 34 35 35 36 37 40 47 57 64 57 45 42 41 52 57 58 60 63 63 65 66 67 72 82 87 86 63
29 27 23 27 29 26 34 33 32 30 24 31 29 30 31 34 37 39 44 47 48 45 40 37 44 38 37 40 47 55 58 57 54 50 50 60 68 72 77 79 76 58 58 63
32 33 37 35 38 35 34 32 23 23 26 35 26 30 34 37 40 42 45 48 47 44 43 44 42 43 48 51 56 60 58 54 48 42 42 49 53 56 56 57 59 64 67 54
34 34 31 37 26 33 36 39 39 39 40 45 44 37 38 38 41 47 51 50 51 56 62 63 54 51 50 51 55 54 54 54 61 69 65 65 64 67 67 67 64 54 50 46
39 42 36 29 44 47 40 41 47 56 74 67 42 41 52 43 43 45 48 55 62 64 67 68 69 78 86 78 58 47 47 50 55 59 69 70 70 73 73 66 59 47 35 31
42 48 45 27 44 44 41 45 44 63 81 56 30 48 57 50 51 56 61 67 72 68 75 78 77 70 72 78 81 75 78 68 62 58 59 65 66 62 64 53 41 36 27 14
46 48 39 21 15 40 44 45 37 48 49 55 44 55 54 56 58 64 62 66 75 79 80 85 87 74 76 69 67 84 77 84 88 96 86 86 82 61 50 42 36 28 19 16
52 46 44 44 50 46 37 30 47 42 63 56 39 54 55 59 61 64 70 70 73 72 74 83 84 82 68 74 90 82 77 83 94 92 82 83 66 55 39 33 28 23 32 32
47 45 37 48 42 40 50 47 43 40 40 63 78 45 43 54 63 70 64 65 67 68 70 75 76 73 81 84 82 64 67 71 64 65 70 70 41 42 40 32 31 34 37 32
21 43 40 44 36 19 26 43 46 45 46 54 52 50 41 47 54 61 69 71 71 70 68 74 80 82 66 74 72 64 64 66 74 74 73 30 40 70 75 58 45 48 52 30
18 28 40 45 52 43 39 46 40 43 45 46 52 43 38 56 61 66 81 76 72 66 69 74 76 77 66 70 60 55 46 45 43 38 32 52 94 95 87 79 75 69 82 38
15 26 42 44 40 38 36 35 36 37 47 48 49 47 44 59 72 78 79 78 80 79 77 76 90 78 74 63 45 39 43 49 41 66 76 81 91 86 83 97 88 98 94 47
10 37 30 33 29 26 34 34 37 41 42 44 43 47 63 63 67 74 76 82 85 79 60 61 71 74 54 37 34 37 40 51 49 62 82 83 79 88 94 85 99 80 100 67
9 19 23 19 38 38 24 32 45 46 49 50 52 55 62 65 75 78 78 80 74 60 52 61 68 55 33 28 31 61 84 64 73 94 88 73 78 100 96 90 98 97 96 77
18 16 20 24 29 25 54 58 51 47 54 54 57 58 60 63 67 74 78 75 68 48 62 68 53 36 34 70 87 86 86 92 95 88 85 68 74 94 97 81 91 85 97 89
22 19 23 25 26 49 49 50 44 40 56 58 62 66 72 71 72 79 80 70 50 56 71 54 40 64 79 83 81 83 87 87 87 80 37 42 56 69 74 74 89 97 94 97
20 26 28 32 36 29 34 51 53 55 56 54 52 66 73 84 91 81 73 62 64 75 52 49 64 72 69 56 56 73 72 65 55 28 53 63 65 57 54 56 56 91 88 100
25 32 37 41 47 69 53 66 64 67 64 59 55 67 80 74 77 79 73 58 52 46 45 39 37 36 43 44 53 60 54 33 30 57 75 74 63 61 66 70 64 90 86 50
36 38 45 48 52 33 32 53 49 74 54 62 64 70 78 85 95 91 82 64 50 49 46 43 38 35 38 42 33 40 30 46 68 75 66 58 67 74 80 91 94 86 61 19
37 32 35 67 92 62 43 63 65 63 71 76 79 83 93 100 99 92 77 58 47 44 42 33 28 24 18 19 21 30 36 44 57 60 56 60 71 71 74 81 85 47 21 34
56 36 42 44 34 41 56 81 84 74 69 80 88 81 91 93 91 71 62 56 50 56 23 17 14 13 17 19 28 46 61 53 45 52 55 64 66 70 43 21 18 20 28 35
60 60 54 62 63 66 82 78 84 91 99 96 96 95 96 98 79 67 61 48 27 15 13 12 12 14 16 22 32 42 46 46 53 54 59 64 71 26 15 17 22 25 32 37
26 38 46 52 60 62 74 71 77 91 96 99 99 94 90 81 67 52 33 20 14 12 10 10 12 15 18 26 29 37 53 49 52 56 65 72 41 14 15 22 22 23 27 33
26 34 45 47 52 51 57 68 90 95 96 95 94 99 84 69 47 31 19 14 11 10 9 11 12 16 20 24 38 48 56 52 59 61 73 68 17 16 21 24 24 24 31 39

GFSCGP_700_rhum_024.txt.gz
RH
21 26 26 23 23 20 22 22 22 24 25 24 21 21 23 24 24 28 29 27 25 29 49 63 70 71 72 69 74 81 84 73 50 59 65 66 68 69 71 73 75 77 84 96
32 30 27 24 18 13 25 24 25 25 24 22 24 27 27 28 28 27 24 27 27 26 42 53 55 55 58 60 63 74 67 54 62 64 64 64 66 67 73 79 78 75 84 97
31 28 19 26 26 19 28 28 30 31 29 20 25 32 31 33 32 34 34 33 33 34 42 55 52 51 56 60 59 51 49 58 59 59 57 54 57 66 72 81 87 82 76 71
27 26 24 26 27 27 33 36 36 32 28 18 31 36 51 42 40 42 40 38 38 43 49 50 57 52 42 39 40 45 51 56 59 58 54 48 47 50 52 52 52 52 55 57
30 24 32 36 36 34 25 23 24 35 27 31 41 35 55 48 43 43 40 38 42 43 41 40 39 40 32 35 45 50 54 47 40 36 37 41 46 51 53 57 58 56 57 60
32 35 28 36 32 42 36 39 39 42 43 46 41 38 49 49 42 45 46 48 46 43 42 44 39 31 32 35 37 36 38 42 41 44 48 49 54 61 67 73 83 64 58 50
34 38 27 36 46 41 38 39 46 56 69 62 46 46 52 43 44 44 44 49 52 55 58 51 41 41 46 45 48 48 47 56 62 65 60 60 61 83 92 88 85 61 43 35
43 47 42 27 44 45 44 41 43 65 71 51 45 57 66 51 53 56 60 67 71 71 67 66 77 78 80 79 81 75 83 95 91 71 58 54 56 73 74 73 59 37 32 28
47 42 40 22 27 47 48 39 42 48 56 56 56 61 62 59 59 63 76 80 78 79 76 79 85 88 90 92 94 92 96 96 80 61 59 58 69 71 60 48 27 33 55 51
46 46 39 49 40 33 29 38 43 40 58 54 50 57 59 61 60 64 74 79 72 75 82 82 86 90 93 97 98 87 67 66 56 54 49 59 68 48 30 16 28 77 78 70
47 37 34 43 43 44 45 47 37 38 44 62 79 48 47 60 63 66 73 70 76 75 82 91 94 98 98 90 88 76 69 61 52 40 41 48 38 22 18 15 20 58 81 78
45 33 44 44 28 23 35 38 33 32 45 51 51 49 53 50 53 64 68 70 72 79 83 83 79 79 71 76 79 74 63 46 30 26 23 24 26 20 28 50 66 61 59 77
32 38 42 48 45 37 44 51 41 39 40 42 47 42 49 54 54 58 60 65 75 78 78 78 77 74 66 61 62 61 47 30 21 17 18 24 31 56 92 89 87 76 91 100
21 32 36 35 36 32 35 37 37 38 43 45 47 45 46 51 52 57 64 69 76 81 82 82 70 55 54 58 57 47 33 20 17 14 21 45 73 96 97 90 77 92 98 96
17 23 36 40 40 39 37 27 30 36 38 45 44 46 44 57 64 66 70 78 81 85 88 87 69 49 54 60 52 36 16 15 28 52 72 97 98 96 73 59 90 91 82 80
10 18 22 32 22 20 25 23 30 36 38 50 54 55 64 64 67 71 77 80 84 89 94 66 53 53 58 47 29 14 21 50 74 86 88 83 72 35 24 35 43 46 52 59
12 11 20 18 22 41 25 27 40 43 44 48 52 51 54 60 71 77 78 78 81 79 73 61 49 44 36 21 14 28 58 74 66 58 48 44 24 24 35 44 48 54 57 62
20 18 20 23 29 39 32 29 30 42 39 42 50 58 63 68 75 74 73 82 82 74 70 57 46 37 18 17 31 53 59 42 28 22 20 22 35 30 40 54 55 56 76 86
20 25 24 25 29 27 36 39 30 37 42 50 52 53 53 59 69 84 89 84 86 82 70 58 41 24 19 28 45 31 20 14 16 17 24 38 35 36 48 62 66 69 78 80
27 28 31 31 33 46 24 31 34 32 31 32 40 50 55 75 82 84 84 90 96 83 63 48 31 16 16 28 13 13 12 14 19 30 33 39 35 44 61 65 72 75 82 50
30 39 43 38 40 27 21 36 35 47 31 37 48 68 73 78 87 85 75 92 93 71 53 32 14 12 13 11 11 11 16 26 46 39 47 47 40 53 65 65 72 73 28 20
34 31 31 49 53 39 26 38 40 36 36 48 61 81 92 97 91 89 94 93 75 58 29 14 13 11 11 10 10 14 20 22 24 49 50 43 50 65 67 52 14 13 19 25
46 29 28 29 26 32 36 44 52 54 70 71 82 94 95 96 96 97 89 87 59 24 14 12 11 11 11 10 12 13 16 24 34 53 56 54 61 68 59 19 14 19 22 23
25 39 45 42 33 40 52 60 70 82 82 87 87 95 93 99 96 88 84 56 24 14 12 11 10 10 10 12 12 14 25 34 42 53 61 56 65 69 29 15 17 22 22 23
28 38 35 47 56 62 69 69 78 75 74 90 91 96 98 92 91 87 52 27 16 13 12 10 9 10 11 12 13 21 28 34 44 56 59 64 69 66 19 17 22 24 22 22
31 31 34 34 44 52 53 57 55 65 91 95 97 94 90 93 85 59 32 18 14 12 11 10 10 12 13 14 16 21 26 39 49 56 65 73 77 51 17 18 24 28 24 24

GFSCGP_700_rhum_027.txt.gz
RH
20 21 18 20 22 22 20 22 25 23 22 24 26 24 22 23 21 23 22 22 23 28 41 52 68 77 75 82 82 83 88 84 83 73 68 61 64 65 66 78 98 99 100 98
26 28 28 26 23 18 24 22 25 25 25 25 25 24 23 22 20 22 22 24 26 26 30 45 54 65 74 75 72 68 77 70 63 62 63 64 66 71 86 91 87 88 90 88
29 28 28 24 25 23 26 25 26 25 26 24 29 33 31 27 26 26 30 32 32 36 38 50 45 49 53 58 53 51 58 62 65 66 65 63 68 75 79 82 78 67 62 54
30 23 20 25 28 28 29 29 29 31 30 27 32 45 44 35 35 36 37 39 43 59 65 56 76 58 48 46 50 57 61 64 54 46 50 53 57 55 54 58 54 42 41 41
30 28 26 28 30 34 28 31 32 40 28 30 42 41 60 61 48 46 49 56 65 66 58 58 52 50 44 44 38 43 40 41 41 42 44 45 46 49 49 47 45 48 50 58
29 32 30 35 35 30 32 37 41 43 44 48 52 41 58 56 48 51 54 56 54 60 57 55 56 49 44 47 44 45 52 55 57 52 48 56 64 50 48 49 51 58 59 56
38 31 27 26 44 40 35 40 46 57 67 67 52 50 52 54 54 48 44 46 53 62 63 64 64 75 54 49 55 62 71 77 78 69 61 58 52 52 53 52 53 52 29 19
37 47 32 46 45 44 38 37 42 59 71 53 51 58 54 50 50 53 59 61 63 67 68 75 66 60 55 60 78 85 88 88 82 71 72 54 50 41 33 33 30 20 16 13
43 45 30 18 43 43 45 27 39 44 56 56 62 66 60 56 59 63 62 67 66 63 72 71 70 65 74 89 93 92 88 76 81 81 64 49 35 24 19 18 20 17 16 21
42 44 38 43 34 41 39 42 40 39 57 56 54 65 62 63 61 61 63 63 63 66 72 75 74 84 88 90 96 81 80 82 84 63 50 34 20 14 13 15 22 44 52 81
45 39 40 49 44 41 39 31 28 36 45 64 77 54 53 59 62 62 62 66 75 75 74 78 86 94 98 96 93 85 68 63 55 51 36 20 13 12 18 36 61 70 86 94
47 37 46 44 36 24 32 35 28 24 39 49 52 43 44 52 56 57 66 73 70 70 73 79 90 98 97 98 72 60 53 57 54 39 17 12 13 20 38 63 85 99 94 72
44 38 47 41 32 30 35 33 36 35 33 38 51 36 41 48 54 54 55 61 64 66 68 78 84 86 93 82 92 52 50 50 33 13 10 10 16 41 85 94 86 63 34 26
34 32 33 26 31 36 35 42 40 38 40 42 38 36 44 48 51 57 59 57 63 70 79 84 87 92 90 96 54 50 42 24 12 10 11 20 66 85 72 50 25 20 26 39
20 24 34 32 31 27 29 34 36 34 32 38 27 34 40 46 47 57 68 69 72 78 85 91 93 95 82 60 50 41 24 12 10 12 23 64 55 31 18 16 19 26 41 45
11 21 30 37 34 30 25 23 25 26 26 29 32 33 38 47 53 59 71 72 78 85 94 97 90 74 71 65 48 28 13 11 13 19 20 14 12 14 15 17 22 33 46 42
11 12 22 33 24 23 28 15 21 21 30 33 38 33 49 52 55 63 72 80 87 92 96 90 82 80 71 58 32 14 11 12 15 12 11 12 14 14 18 22 26 42 52 55
18 17 17 18 24 41 13 13 19 32 31 33 33 35 40 48 60 67 75 85 91 95 89 78 82 80 63 35 16 11 12 13 11 10 11 12 15 17 20 27 34 49 57 71
30 20 23 21 30 20 17 19 21 22 22 26 23 31 43 50 60 68 87 92 84 82 70 79 87 67 40 16 12 11 10 10 9 9 11 16 20 24 34 34 48 57 64 76
28 28 36 30 31 42 14 15 18 26 33 22 29 28 34 52 65 74 90 88 90 84 85 90 71 47 17 12 11 10 8 8 9 12 18 23 30 38 39 41 58 65 55 44
24 27 36 39 37 26 20 20 23 52 21 27 31 33 41 56 76 85 92 98 94 92 89 80 52 19 12 12 10 8 8 10 12 18 31 33 37 42 47 54 67 43 16 17
28 28 27 43 60 44 20 24 28 22 27 38 39 46 61 76 85 93 92 90 97 95 85 57 21 13 12 11 9 9 10 11 16 25 29 38 41 48 53 66 64 22 15 20
40 27 28 26 21 22 27 33 40 47 48 51 66 81 89 88 88 93 91 96 92 84 63 23 14 13 11 10 9 10 12 13 18 23 31 41 50 57 62 74 49 16 18 24
24 26 32 30 24 28 41 43 46 59 65 83 93 87 89 94 87 98 96 94 86 62 26 15 14 13 11 10 11 13 16 18 19 23 35 44 54 66 75 79 34 18 24 26
33 30 28 30 28 34 40 40 51 66 79 92 81 86 97 94 98 96 98 87 65 31 16 15 14 13 11 11 13 17 20 23 23 27 45 54 59 78 85 76 24 19 26 29
34 33 38 36 39 44 44 47 57 71 73 63 76 86 99 94 97 96 90 74 35 19 16 15 14 13 12 13 16 20 22 26 29 28 47 58 63 83 90 57 20 20 22 30

GFSCGP_700_rhum_033.txt.gz
RH
25 24 16 16 19 18 18 20 21 22 22 22 24 20 25 27 24 23 20 22 25 29 40 59 71 75 75 71 71 94 100 99 96 83 68 65 65 61 55 50 53 56 54 52
21 22 22 23 22 22 21 24 25 27 23 23 23 25 25 24 22 23 22 22 26 34 41 45 60 70 76 81 88 97 96 90 67 62 54 53 54 56 56 56 55 48 42 42
21 22 25 26 24 19 22 25 27 26 26 24 24 25 25 22 21 23 23 22 27 36 44 53 54 53 61 70 73 63 51 50 56 49 58 68 71 56 52 55 51 46 44 41
28 29 28 28 26 24 26 30 30 29 28 28 28 27 25 24 23 24 24 22 29 28 32 42 55 62 60 58 50 42 50 58 66 72 77 70 54 58 65 64 54 48 44 41
28 26 27 31 27 24 24 33 33 32 31 30 32 34 29 28 26 25 24 23 28 44 53 62 66 62 57 52 57 74 70 76 82 74 75 61 59 61 58 55 49 46 40 28
25 27 28 27 26 30 31 31 34 37 39 44 35 38 30 27 26 32 33 39 49 58 68 66 66 59 54 62 72 74 72 72 76 78 78 71 64 63 53 50 48 38 23 13
32 30 29 30 33 34 30 30 44 49 58 54 53 55 41 39 38 41 42 48 59 70 69 67 65 65 66 67 75 73 71 79 82 88 88 78 69 60 53 48 36 18 12 10
32 31 28 26 34 34 39 40 38 53 62 56 54 57 44 42 40 51 62 65 66 64 62 61 64 66 69 64 64 73 83 86 93 100 99 80 79 56 49 35 19 12 11 11
32 36 33 32 40 45 41 37 40 41 54 51 47 50 40 38 40 51 61 62 62 60 59 64 62 62 66 64 72 82 89 94 100 99 91 94 72 51 37 20 12 12 10 8
32 42 38 29 41 48 43 41 39 38 54 46 45 48 33 31 39 49 54 54 57 59 62 62 62 63 66 71 80 89 99 100 100 97 94 74 52 37 22 14 12 10 8 7
38 41 42 37 32 33 43 45 31 28 36 41 48 30 19 19 38 47 50 52 58 62 62 60 63 72 76 81 90 98 100 98 100 95 74 56 47 24 15 12 10 8 6 6
44 46 41 43 37 38 37 36 27 25 31 42 46 26 20 19 23 44 59 60 62 63 61 57 70 78 84 90 100 99 93 99 97 76 67 54 26 15 12 10 7 6 6 6
43 47 43 47 45 44 42 34 32 26 23 26 54 19 19 19 25 36 58 66 68 68 62 72 78 84 89 99 100 100 99 97 80 63 51 27 14 12 10 8 6 6 6 8
43 47 43 40 32 30 35 31 23 31 29 23 19 14 14 21 26 35 44 52 62 67 73 78 80 84 99 99 98 99 97 92 72 55 28 14 12 11 9 7 6 7 9 11
37 43 45 39 33 26 27 25 24 27 24 26 14 16 13 18 22 29 47 54 55 60 68 78 84 92 99 97 98 90 85 81 66 37 15 12 12 10 8 7 7 10 14 16
38 29 25 29 36 34 29 26 24 24 23 20 18 11 13 18 21 27 36 46 52 58 69 82 91 99 97 98 86 87 90 80 50 16 13 13 12 9 8 8 10 13 18 24
35 28 22 23 22 34 37 19 19 15 12 11 14 9 18 21 25 23 28 40 52 66 81 92 98 99 96 94 97 94 90 67 20 13 14 13 11 9 8 9 10 15 23 32
28 23 18 17 20 40 10 10 10 10 10 10 10 10 19 27 28 22 28 30 36 57 82 93 99 97 98 96 96 93 82 28 14 14 14 13 10 9 10 12 14 21 28 36
44 30 21 20 25 16 13 12 11 12 12 11 12 16 24 35 34 24 25 24 36 71 92 100 96 98 95 94 96 87 35 15 15 15 14 12 10 11 14 16 18 28 35 43
51 52 51 39 28 43 19 16 14 14 17 15 18 26 35 36 30 33 32 33 46 78 88 99 94 98 98 98 88 40 16 15 16 16 14 12 12 15 17 20 20 32 42 53
38 36 39 40 43 29 20 18 19 26 22 25 22 25 27 28 31 33 43 53 60 70 90 97 99 98 98 90 49 17 16 17 17 16 13 13 16 19 20 23 25 37 47 62
44 37 32 32 43 36 21 24 27 30 30 33 35 40 37 37 42 54 70 84 87 95 99 99 99 97 94 54 19 18 20 19 17 15 14 16 20 23 22 27 32 44 52 69
44 38 34 30 24 24 28 30 31 32 35 43 48 57 58 69 79 83 89 99 98 93 100 98 96 95 64 21 24 28 21 18 16 14 14 19 23 26 26 35 38 52 62 78
34 29 27 27 25 28 34 39 39 40 40 53 60 59 69 81 86 87 98 99 100 100 98 97 94 71 28 48 43 22 19 15 13 14 18 23 27 30 34 41 43 62 75 85
38 33 32 34 36 43 42 45 46 49 50 50 53 59 65 74 84 93 100 97 98 100 96 95 74 42 67 47 23 17 11 10 14 18 24 30 34 38 44 46 50 68 83 82
34 41 45 47 48 53 50 53 56 57 58 59 62 66 67 74 92 100 97 99 100 97 95 75 69 73 50 22 13 9 11 17 23 28 30 33 38 42 49 52 60 82 84 67

GFSCGP_700_rhum_036.txt.gz
RH
26 28 20 19 18 17 17 22 19 21 14 22 21 23 21 24 22 21 24 31 35 43 49 64 68 69 73 76 82 91 97 93 96 80 60 65 57 45 45 46 48 51 49 49
25 26 17 15 18 19 22 24 27 22 21 21 24 23 20 26 25 24 23 25 29 34 39 45 59 68 73 77 83 88 80 64 51 58 46 46 54 66 62 63 64 58 53 46
26 24 22 22 22 24 29 28 28 29 23 25 30 36 24 24 24 22 23 25 26 35 40 50 58 64 69 77 78 76 54 48 51 60 69 70 76 66 64 66 67 63 51 47
30 20 24 25 25 28 30 25 27 26 29 23 25 20 35 24 23 22 21 25 29 29 36 46 39 49 64 66 64 50 61 65 69 75 82 87 86 85 78 74 65 55 50 48
30 29 29 34 28 23 32 26 31 33 31 32 32 26 28 28 28 27 24 25 28 30 32 33 52 68 64 58 52 67 59 71 72 74 83 86 93 92 84 71 63 53 49 38
27 28 28 28 25 27 26 30 34 36 37 30 30 34 16 25 40 33 27 28 27 27 36 53 65 61 59 56 59 66 75 76 75 82 86 90 96 93 79 79 66 51 38 19
38 36 30 28 35 33 34 36 27 34 36 31 47 38 21 31 30 35 33 36 33 41 53 64 64 63 67 68 67 63 71 77 84 89 91 88 98 91 85 84 54 40 22 17
30 37 36 31 41 37 40 35 27 26 31 30 52 37 37 34 38 40 41 48 47 52 63 66 62 65 66 62 67 69 73 80 87 95 91 100 97 93 86 57 46 28 17 11
34 38 31 29 28 33 40 37 42 46 46 50 31 41 38 37 36 38 46 49 55 61 64 63 63 69 61 65 67 72 79 87 94 95 97 98 96 90 63 51 33 19 12 10
28 41 35 30 30 40 45 41 42 43 43 30 23 28 22 29 31 36 47 50 59 64 62 61 66 64 63 68 75 84 87 90 89 100 98 97 96 71 53 35 20 12 10 8
28 28 44 38 36 40 48 48 39 38 36 26 23 15 18 16 20 34 44 50 58 61 62 62 68 63 63 73 82 89 96 99 99 97 98 97 80 54 37 19 13 11 9 7
31 42 51 47 40 31 34 45 43 29 33 49 48 20 14 12 12 17 32 55 59 59 64 65 69 66 68 78 86 94 95 94 100 99 97 72 58 39 20 13 12 10 9 7
34 46 48 50 48 44 47 41 39 27 21 39 55 18 12 11 12 15 22 42 53 58 62 65 69 70 77 80 94 98 96 99 96 97 76 66 48 22 14 13 13 11 8 7
39 45 43 35 35 39 47 39 34 37 39 28 32 18 23 14 15 17 20 26 40 56 65 70 76 74 77 87 94 91 100 95 95 82 82 62 28 15 14 15 13 10 8 9
41 46 43 45 42 38 31 30 36 38 31 36 22 25 18 27 18 19 20 22 32 48 57 62 68 71 81 91 90 98 96 96 90 90 78 39 18 15 16 15 12 10 10 10
47 43 36 40 41 41 36 30 30 36 37 35 28 22 20 16 17 18 19 19 25 43 56 62 66 76 86 92 99 99 98 94 93 90 53 23 15 16 16 14 11 11 11 12
49 43 36 38 25 29 37 18 20 21 19 19 35 18 29 16 20 21 24 22 21 36 41 50 66 82 95 100 99 98 99 97 94 62 24 16 16 17 15 12 12 12 14 15
43 40 27 22 20 65 21 12 11 13 11 15 11 15 14 18 24 31 34 26 24 22 23 39 69 91 100 99 99 99 97 97 75 30 16 17 18 16 14 12 13 14 17 20
35 27 21 21 38 24 16 16 14 14 15 14 13 13 16 21 31 38 35 27 28 28 31 56 86 98 100 97 97 95 98 82 33 17 20 19 18 16 13 13 15 19 21 26
56 50 37 39 43 84 24 19 17 17 30 20 21 20 19 23 30 43 34 32 34 39 44 54 93 100 90 98 98 97 89 42 32 42 21 18 17 14 12 15 20 24 26 32
51 56 53 54 50 36 26 24 24 36 36 27 24 26 29 33 36 35 34 42 54 64 73 78 94 98 99 100 97 95 65 46 62 26 20 17 13 11 14 20 24 26 32 37
45 40 38 38 44 48 23 27 30 35 27 28 34 41 44 49 54 60 68 78 78 82 90 95 97 95 98 97 96 71 71 80 28 20 15 9 9 13 18 26 31 34 40 41
48 41 38 35 35 28 30 32 35 34 33 35 39 52 56 59 64 69 77 83 89 89 87 98 100 99 100 95 67 80 86 30 19 11 8 9 13 20 26 30 34 41 46 46
41 37 35 34 31 32 37 39 41 43 44 44 46 45 47 54 57 62 76 88 96 95 100 100 98 96 97 86 90 76 42 16 8 8 9 13 21 24 31 34 37 47 50 52
50 47 41 38 37 43 42 45 50 54 57 57 58 58 61 65 68 71 74 86 98 96 100 99 97 94 73 90 88 48 12 8 9 11 13 21 27 29 34 36 43 53 53 60
54 48 49 47 45 49 54 59 59 59 59 60 62 61 61 67 72 78 85 90 97 100 98 96 95 95 95 80 52 28 10 12 14 15 22 30 34 33 39 42 45 51 56 69

GFSCGP_700_rhum_039.txt.gz
RH
30 32 27 24 24 22 18 15 13 14 16 17 15 22 29 34 43 49 59 64 68 72 79 42 47 57 74 73 69 78 81 86 90 91 61 40 44 64 69 49 48 44 47 53
29 29 28 24 21 18 16 20 20 20 18 18 16 20 29 34 38 41 48 60 68 75 65 51 54 60 66 69 73 77 83 88 62 45 48 55 55 52 62 60 55 56 60 58
30 29 20 22 21 20 20 22 31 22 24 21 22 22 31 33 42 48 52 55 65 79 56 54 61 64 66 69 78 84 82 66 44 55 69 72 73 75 69 67 69 66 68 62
39 33 27 22 21 23 27 27 26 24 25 21 23 18 26 35 27 24 27 49 67 81 90 53 50 49 57 67 77 72 59 50 69 77 77 78 85 91 90 92 92 76 80 72
30 29 25 22 27 25 41 24 26 22 20 24 24 18 27 35 39 38 27 25 58 87 93 54 49 39 46 66 64 56 59 61 70 78 78 84 85 90 99 99 90 88 88 60
40 38 31 34 27 26 28 32 31 27 22 26 22 20 18 27 30 38 55 36 82 74 61 42 36 51 64 63 57 54 67 69 73 74 79 85 92 100 99 94 94 98 70 49
33 32 32 33 34 34 32 30 29 32 26 28 30 26 18 26 41 37 35 58 63 36 38 38 45 61 62 60 64 63 62 60 64 70 78 87 94 94 97 96 98 70 56 41
27 35 33 35 32 33 32 27 27 29 25 21 33 20 27 28 26 40 56 75 71 37 38 54 63 63 61 64 62 61 62 60 68 76 84 90 88 94 98 96 81 60 48 32
34 32 38 34 39 32 33 28 35 33 35 37 19 20 37 27 38 41 68 85 71 58 51 61 63 63 63 66 57 60 74 75 74 83 86 95 92 100 100 85 64 55 34 19
31 34 37 35 35 32 33 38 32 30 36 29 16 16 20 38 40 52 68 83 90 88 86 73 66 62 65 67 60 66 81 81 87 91 94 95 99 99 92 64 58 36 21 15
28 28 43 42 36 26 41 35 34 33 34 31 22 17 24 26 37 45 59 73 84 87 86 90 68 62 66 70 60 72 82 86 90 93 97 100 99 88 68 63 41 22 16 15
34 32 30 35 38 33 38 34 35 36 28 33 42 25 20 22 33 41 51 65 76 80 82 93 74 65 65 71 75 73 77 90 92 98 100 99 88 75 69 51 27 16 16 15
45 30 28 36 43 42 41 36 34 34 40 33 45 24 28 20 11 23 38 51 66 71 79 92 83 62 65 70 77 76 87 88 94 96 100 93 82 80 63 33 17 16 16 16
32 29 32 31 28 35 44 40 38 36 38 31 23 22 23 29 31 31 41 44 54 67 78 74 60 57 64 71 76 80 82 90 98 100 98 93 89 80 38 19 16 17 17 15
44 45 37 35 40 43 38 34 35 37 35 31 27 24 17 16 20 28 33 45 54 43 21 35 50 60 67 69 73 83 87 99 99 99 99 95 92 43 24 18 18 18 16 13
45 49 49 54 47 48 42 39 34 30 31 29 26 23 22 27 26 34 32 44 50 66 24 31 45 59 66 70 81 87 96 98 99 100 96 98 60 27 22 20 19 17 15 12
63 57 54 46 46 39 35 24 29 29 31 31 31 28 28 35 38 40 39 48 33 28 24 32 44 58 66 75 82 96 100 98 100 97 99 81 39 27 43 21 18 15 12 12
49 56 59 47 26 67 25 24 19 22 26 27 28 28 28 30 40 30 46 54 51 29 26 26 29 45 61 81 86 100 98 99 98 99 92 37 50 67 23 19 15 9 11 14
50 54 36 40 39 32 28 22 23 27 22 31 36 33 31 31 20 26 46 42 33 31 32 32 33 43 54 65 98 100 100 100 100 96 58 78 73 41 19 13 8 10 14 19
43 36 43 31 55 86 44 24 21 18 36 41 24 36 33 18 43 43 46 46 38 32 34 44 50 52 60 86 93 89 96 99 96 83 94 73 46 20 10 8 11 17 21 23
59 55 50 65 72 55 47 34 26 35 52 35 23 23 27 42 58 43 42 43 42 47 58 71 72 79 84 92 94 98 100 98 95 95 87 66 23 8 8 11 18 22 22 25
45 47 47 81 70 60 37 31 41 58 31 32 27 42 32 40 42 46 52 60 64 74 80 83 88 91 90 99 99 98 97 96 95 78 65 39 15 9 11 16 20 21 27 33
63 62 65 51 54 52 29 34 36 31 31 34 38 39 42 43 50 57 56 62 67 78 84 91 94 97 94 100 98 96 95 95 94 78 42 24 10 11 16 22 24 26 36 39
54 45 44 40 51 53 53 42 49 42 42 44 48 52 53 57 59 88 59 68 76 86 84 90 89 99 99 97 96 94 95 94 78 44 24 15 12 14 22 31 31 30 38 42
62 53 57 54 58 48 65 74 46 47 55 58 58 62 57 62 71 67 73 78 81 84 94 100 100 98 98 97 95 95 94 84 49 36 27 16 16 21 32 36 38 41 44 48
59 72 63 74 58 45 52 56 49 58 60 62 64 68 66 70 74 76 77 84 92 99 97 99 98 98 96 95 95 94 82 61 48 26 20 20 21 32 38 41 40 41 48 52

GFSCGP_700_rhum_042.txt.gz
RH
39 40 38 29 28 32 26 23 22 16 18 19 17 21 23 32 42 51 53 54 52 53 53 58 44 54 86 45 54 67 75 76 81 85 88 59 52 59 53 59 63 64 50 46
40 32 34 38 32 27 20 21 22 15 15 15 18 16 25 27 35 46 55 60 63 65 64 48 40 41 90 54 56 68 72 79 84 79 46 52 63 65 62 56 58 61 57 60
49 34 37 28 24 20 20 36 31 33 19 14 17 14 23 28 33 38 44 54 62 68 73 61 51 46 53 56 63 70 78 87 82 58 55 65 70 71 71 73 76 76 79 80
43 39 36 28 22 21 26 41 30 30 25 20 27 28 21 27 31 36 38 44 52 62 72 75 66 53 58 64 68 74 78 72 64 51 53 71 74 78 77 82 90 84 84 85
38 32 32 29 28 28 30 29 31 24 20 24 28 41 38 33 33 35 43 47 50 58 70 82 85 68 54 58 58 55 66 58 54 56 70 73 78 99 100 100 96 91 97 87
41 48 42 28 27 27 34 26 29 24 24 40 35 37 40 42 39 49 51 55 50 64 75 91 98 100 79 42 54 65 58 72 61 72 67 73 79 80 89 94 88 97 91 94
32 29 34 33 29 31 30 26 32 76 77 39 20 23 19 38 42 39 47 58 60 79 89 96 99 93 44 52 66 59 62 70 58 60 64 70 73 80 86 97 99 100 92 72
28 35 31 30 27 33 38 26 44 60 78 38 30 24 26 34 32 22 50 57 74 84 85 90 83 82 63 67 60 62 67 63 60 57 61 66 73 85 98 100 98 100 78 60
40 44 45 35 29 32 34 30 32 29 32 37 23 16 36 39 22 28 56 70 76 65 76 87 78 75 66 62 62 65 62 58 52 57 67 74 87 92 97 94 98 92 64 57
36 55 47 39 33 27 22 28 31 27 38 38 19 17 38 38 40 47 62 76 79 70 81 81 76 70 61 62 61 65 68 62 60 60 75 89 94 100 100 99 97 72 65 39
36 36 55 42 35 23 39 38 28 23 30 47 49 25 21 26 34 38 54 69 74 63 76 69 74 74 72 67 65 63 69 75 66 71 84 96 98 99 100 100 94 73 48 34
32 33 37 39 33 32 33 34 33 35 36 32 32 36 26 23 29 36 45 57 72 79 81 88 86 91 84 86 74 64 72 78 76 82 90 100 99 99 99 98 83 60 40 34
34 36 32 30 32 38 35 28 28 30 37 37 57 31 28 26 21 26 30 44 59 72 81 82 88 96 99 86 80 73 71 74 78 84 100 100 100 100 99 96 72 36 37 27
37 40 32 32 26 32 36 38 31 33 38 39 36 27 22 24 28 28 29 34 43 56 69 74 81 93 100 99 85 92 77 75 78 100 100 100 100 99 99 93 66 34 34 28
31 36 29 26 28 32 38 36 33 32 33 36 36 31 24 22 22 24 26 32 38 46 57 67 76 89 100 100 98 90 79 73 90 100 100 100 99 100 97 88 26 52 57 24
33 46 41 48 46 42 40 37 33 31 31 27 29 28 27 23 28 27 30 31 33 43 50 64 65 80 98 100 98 78 76 83 99 100 100 100 99 97 94 24 71 91 58 16
54 46 60 56 48 44 37 31 26 32 31 30 29 28 29 30 28 33 37 41 41 42 52 67 72 62 78 100 92 72 96 82 94 100 100 100 98 96 44 77 90 54 28 9
67 63 64 57 46 61 31 30 26 26 25 25 26 28 28 29 30 32 29 28 44 60 45 56 70 56 59 98 99 90 86 87 100 100 99 98 95 81 59 92 80 37 26 10
67 70 61 54 46 40 36 30 26 23 29 31 33 32 34 32 24 35 50 47 46 42 38 36 34 41 54 76 78 75 86 100 100 99 97 97 84 81 95 62 45 45 11 12
49 62 59 34 57 81 47 38 26 25 34 46 37 36 26 30 43 52 57 56 51 39 38 43 52 60 73 74 74 78 98 98 98 97 97 96 96 94 77 76 35 23 15 17
56 47 50 60 51 56 50 47 39 38 58 58 40 26 25 29 54 56 47 52 51 48 77 78 79 85 87 88 89 92 95 98 97 97 94 95 94 93 71 59 42 15 19 23
42 53 57 70 87 74 52 38 38 66 63 38 27 28 37 36 35 57 47 43 50 72 84 81 80 84 89 91 94 95 99 97 96 97 95 93 93 82 65 42 17 17 20 25
59 59 63 53 59 53 50 38 55 44 32 32 36 38 42 44 50 64 99 81 68 72 72 77 71 78 90 98 100 100 96 97 96 94 94 93 89 75 40 16 16 20 24 27
62 60 55 57 48 54 56 62 70 41 39 42 42 55 47 51 62 75 90 99 81 63 68 79 94 100 100 100 97 97 96 95 95 94 85 73 52 30 18 19 20 22 34 40
65 60 50 56 56 54 63 71 57 53 49 46 56 60 58 65 68 69 69 70 79 95 99 100 100 100 98 97 96 93 92 81 55 46 50 45 24 23 24 23 27 32 42 48
57 63 59 71 68 60 72 62 54 49 50 56 64 65 68 69 67 72 77 82 91 98 100 100 97 94 93 88 54 30 28 36 41 39 30 22 22 25 31 35 33 46 46 48

GFSCGP_700_rhum_048.txt.gz
RH
42 37 43 45 44 38 31 30 30 28 32 27 29 32 38 37 52 51 41 36 57 68 48 45 34 33 34 43 49 52 55 64 76 80 78 77 81 78 60 53 56 52 51 54
39 33 45 41 39 34 35 32 32 32 28 30 34 34 30 27 34 51 46 46 37 49 51 54 52 38 33 34 42 48 51 61 67 74 76 78 76 55 49 58 57 56 58 60
40 36 34 40 34 38 36 34 36 31 28 24 20 32 33 36 42 48 53 50 48 43 42 45 40 32 32 31 35 42 54 63 68 71 77 85 73 53 54 59 58 64 65 67
38 34 32 37 37 40 35 31 35 32 23 24 32 20 20 28 33 45 48 51 51 50 50 50 47 50 53 52 51 54 52 60 66 73 81 88 60 55 56 59 61 69 73 76
35 33 35 36 36 37 35 32 35 28 31 35 30 36 23 26 29 37 39 46 41 46 46 47 47 48 54 64 74 81 77 67 63 63 82 83 57 56 57 56 64 70 75 73
34 36 40 34 34 38 36 38 34 30 33 46 29 36 31 30 26 26 27 30 41 45 50 53 56 59 67 71 81 87 82 81 66 62 76 65 58 53 53 59 66 75 74 77
38 38 37 40 36 35 37 35 42 54 66 58 38 45 33 29 28 26 27 33 42 48 52 57 61 62 71 75 85 79 60 65 67 59 65 60 54 52 58 64 72 81 85 99
36 40 35 40 46 46 44 35 36 48 79 59 39 39 33 26 31 34 32 33 34 38 48 60 65 67 76 82 79 67 60 53 53 64 64 60 56 57 64 72 81 94 99 100
32 37 38 40 42 44 41 36 38 39 53 62 40 28 36 34 29 31 31 36 38 42 48 48 56 68 78 70 69 70 74 75 68 67 62 67 70 72 83 91 99 96 100 92
28 32 32 35 32 40 39 35 32 36 48 48 35 35 40 42 34 27 16 25 38 39 42 57 60 52 63 62 70 72 70 68 72 76 84 78 91 95 99 99 99 97 99 95
25 33 39 43 33 30 37 36 32 31 33 55 66 31 39 41 20 19 21 19 12 26 47 45 56 66 74 72 59 62 67 69 79 100 99 98 99 100 100 100 99 98 98 85
27 32 36 34 39 39 40 37 45 40 33 34 35 31 28 28 27 21 23 26 29 23 26 21 18 18 22 27 32 38 52 64 81 90 94 99 98 97 98 99 99 99 98 98
35 38 43 38 34 35 40 36 38 34 32 33 49 36 30 30 30 30 29 27 27 27 28 32 41 44 49 54 69 70 66 77 82 93 72 72 93 98 99 88 88 99 90 99
27 35 34 42 32 35 36 38 34 36 37 33 36 32 33 33 33 32 30 29 31 35 45 49 53 61 74 82 86 84 96 95 85 92 99 91 93 99 94 95 99 87 89 98
36 34 39 38 33 30 34 36 41 41 42 38 36 33 35 35 36 30 31 32 32 35 39 41 53 68 73 79 85 85 89 86 89 91 91 94 96 99 97 98 98 95 99 99
34 34 34 35 37 37 32 34 40 40 38 36 36 34 32 32 32 31 30 31 35 38 39 41 47 56 68 73 81 88 89 87 85 75 90 94 93 94 96 98 98 87 100 99
35 35 35 35 33 34 40 33 40 35 29 28 36 36 36 33 34 33 34 35 35 35 32 27 34 45 59 70 72 77 83 78 62 66 83 87 91 97 98 99 86 96 98 95
40 31 32 37 41 65 34 33 32 30 33 32 33 34 34 32 32 32 30 27 23 22 25 28 30 36 41 47 44 40 36 42 62 81 86 91 94 99 98 100 100 96 93 88
47 33 50 59 57 49 36 39 31 29 35 37 34 33 33 33 29 24 24 27 31 37 44 45 47 49 47 37 40 46 53 62 72 82 90 91 92 98 100 96 94 92 86 61
56 57 55 66 59 66 41 35 38 30 30 33 38 37 35 32 27 29 31 30 28 30 34 40 42 41 45 56 71 81 85 85 86 96 99 100 100 98 95 91 81 40 34 40
63 68 69 66 60 49 42 42 40 33 34 32 32 36 43 43 32 30 29 30 32 34 37 45 56 67 82 94 95 94 94 89 87 95 98 98 92 78 73 53 29 28 32 31
45 60 72 70 60 56 47 40 44 42 42 42 40 44 46 32 32 32 33 36 43 53 60 71 82 98 98 98 98 99 99 98 100 99 96 86 70 58 34 29 25 25 30 22
55 52 50 49 57 50 46 52 50 49 46 40 47 52 39 36 36 37 48 59 65 72 78 95 100 98 98 99 98 95 90 94 93 84 65 52 33 29 25 18 22 26 23 22
59 51 47 46 62 57 53 49 48 51 49 47 45 48 41 40 39 46 59 66 76 95 100 100 100 100 100 100 100 100 93 77 67 55 42 29 18 15 16 17 18 19 22 26
54 51 57 62 64 64 62 57 54 52 51 53 56 55 52 46 50 59 59 62 81 100 100 100 100 100 100 100 92 78 74 55 30 19 14 12 13 15 16 18 19 22 28 39
54 53 59 63 63 58 53 54 57 60 60 60 64 67 56 55 62 63 67 76 79 90 95 97 92 96 88 81 77 57 25 14 11 11 13 15 17 18 21 23 23 32 40 51